Location: Berkeley
(37.8716°N, 122.2727°W)
Time: 14:47:13
(UTC-07:00)

Envisat - Visible Passes

Search period start: 28 March 2017 00:00
Search period end: 07 April 2017 00:00
Orbit: 764 x 766 km, 98.2° (Epoch: 27 March)

Date Brightness Start Highest point End Pass type
(mag) Time Alt. Az. Time Alt. Az. Time Alt. Az.
28 Mar 3.3 20:48:55 25° SE 20:51:27 44° ENE 20:56:15 10° N visible
28 Mar 5.2 22:29:07 17° WSW 22:30:38 19° W 22:34:16 10° NW visible
29 Mar 4.4 20:11:40 11° ESE 20:15:03 20° ENE 20:18:42 10° NNE visible
29 Mar 3.9 21:51:52 32° SSW 21:53:43 44° W 21:58:35 10° NNW visible
30 Mar 2.9 21:14:39 33° SSE 21:16:59 79° ENE 21:22:05 10° N visible
30 Mar 5.8 22:56:00 10° W 22:56:32 10° W 22:57:05 10° W visible
31 Mar 3.7 20:37:25 18° ESE 20:40:27 34° ENE 20:45:01 10° N visible
31 Mar 4.9 22:17:37 20° SW 22:19:29 25° W 22:23:38 10° NW visible
01 Apr 4.6 20:01:06 10° E 20:04:07 16° ENE 20:07:09 10° NNE visible
01 Apr 3.5 21:40:23 31° SSW 21:42:37 57° W 21:47:38 10° NNW visible
02 Apr 3.0 21:03:10 26° SE 21:05:57 62° ENE 21:10:59 10° N visible
02 Apr 5.6 22:43:21 11° WSW 22:45:21 14° W 22:47:51 10° WNW visible
03 Apr 4.0 20:25:56 13° ESE 20:29:29 28° ENE 20:33:44 10° NNE visible
03 Apr 4.5 22:06:08 22° SW 22:08:21 31° W 22:12:52 10° NW visible
04 Apr 3.1 21:28:54 29° S 21:31:33 74° WSW 21:36:38 10° NNW visible
05 Apr 3.2 20:51:41 20° SE 20:54:56 48° ENE 20:59:49 10° N visible
05 Apr 5.3 22:31:53 13° SW 22:34:10 18° W 22:37:33 10° NW visible
06 Apr 4.3 20:14:41 10° ESE 20:18:31 22° ENE 20:22:21 10° NNE visible
06 Apr 4.1 21:54:40 24° SSW 21:57:14 40° W 22:02:01 10° NNW visible
